Weather in Murmuiza

Latvia     57°28′21″N   25°29′31″E
temp.,
°C
wind,
m/s
gust,
m/s
humid.,
%
clouds,
%
prec.,
mm/h
press.,
hPa
HPBL,
m
20 april, tue
tue2000:00+9e3762100 0.0 1022231
03:00+6ene237154 0.0 102148
06:00+4ene23741 0.0 102051
09:00+9ene246226 0.0 1019349
12:00+12e4558100 0.1 10171169
15:00+13e3341100 0.1 10151956
18:00+12e3342100 0.0 10141666
21:00+8e3766100 0.0 1013197
21 april, wed
wed2100:00+6se2782100 0.0 1013189
03:00+5sse128597 0.0 101240
06:00+5sse1383100 0.0 101085
09:00+8sse127387 0.0 1009289
12:00+13sw225268 0.1 10071306
15:00+14w354492 0.8 10051926
18:00+14w46385 0.1 10041839
21:00+8nw12614 0.1 100413
22 april, thu
thu2200:00+6sw217141 0.0 100411
03:00+5sw387836 0.0 1004183
06:00+3ssw39895 0.0 1005237
09:00+8sw476384 0.0 1005782
12:00+5ssw4794100 0.3 1006789
15:00+8ssw595496 0.8 10061824
18:00+8ssw611585 0.3 10061646
21:00+5ssw510636 0.4 1006804
23 april, fri
fri2300:00+2ssw398117 0.0 1006632
03:00+2ssw498388 0.0 1006720
06:00+1s498867 0.0 1005514
09:00+2s41093100 0.4 1005729
12:00+3ssw587696 0.3 1006896
15:00+5sw586999 0.6 10071122
18:00+3wsw5993100 0.8 1008750
21:00+2wsw4108499 0.9 1009721
24 april, sat
sat2400:00+1sw51193100 0.1 1009725
03:00+1sw41096100 1.5 1008577
06:00+1ssw4897100 0.3 1007572
09:00+2sw3797100 0.6 1007402
12:00+4w3475100 0.8 10071005
15:00+5wnw457099 1.9 10081141
18:00+5w4673100 0.4 10081008
21:00+1w3892100 0.4 1009469